Time,TemperatureF,DewpointF,PressureIn,WindDirection,WindDirectionDegrees,WindSpeedMPH,WindSpeedGustMPH,Humidity,HourlyPrecipIn,Conditions,Clouds,dailyrainin,SolarRadiationWatts/m^2,SoftwareType,DateUTC
2013-01-11 00:12:00,25.0,17.0,-100.00,South,188,16.0,30.0,71,0.00,,,0.00,0.000000,,2013-01-11 07:12:00,
2013-01-11 00:22:00,25.0,17.0,-100.00,South,188,16.0,30.0,71,0.00,,,0.00,0.000000,,2013-01-11 07:22:00,
2013-01-11 00:32:00,25.0,17.0,-100.00,South,188,16.0,30.0,71,0.00,,,0.00,0.000000,,2013-01-11 07:32:00,
2013-01-11 00:42:00,25.0,17.0,-100.00,South,188,16.0,30.0,71,0.00,,,0.00,0.000000,,2013-01-11 07:42:00,
2013-01-11 01:12:00,24.0,18.0,-100.00,South,188,17.0,32.0,76,0.00,,,0.00,0.000000,,2013-01-11 08:12:00,
2013-01-11 01:22:00,24.0,18.0,-100.00,South,188,17.0,32.0,76,0.00,,,0.00,0.000000,,2013-01-11 08:22:00,
2013-01-11 01:32:00,24.0,18.0,-100.00,South,188,17.0,32.0,76,0.00,,,0.00,0.000000,,2013-01-11 08:32:00,
2013-01-11 01:42:00,24.0,18.0,-100.00,South,188,17.0,32.0,76,0.00,,,0.00,0.000000,,2013-01-11 08:42:00,
2013-01-11 02:12:00,23.0,17.0,-100.00,SSE,165,17.0,24.0,78,0.00,,,0.00,0.000000,,2013-01-11 09:12:00,
2013-01-11 02:22:00,23.0,17.0,-100.00,SSE,165,17.0,24.0,78,0.00,,,0.00,0.000000,,2013-01-11 09:22:00,
2013-01-11 02:32:00,23.0,17.0,-100.00,SSE,165,17.0,24.0,78,0.00,,,0.00,0.000000,,2013-01-11 09:32:00,
2013-01-11 02:42:00,23.0,17.0,-100.00,SSE,165,17.0,24.0,78,0.00,,,0.00,0.000000,,2013-01-11 09:42:00,
2013-01-11 03:12:00,22.0,17.0,-100.00,SSW,195,11.0,27.0,81,0.00,,,0.00,0.000000,,2013-01-11 10:12:00,
2013-01-11 03:22:00,22.0,17.0,-100.00,SSW,195,11.0,27.0,81,0.00,,,0.00,0.000000,,2013-01-11 10:22:00,
2013-01-11 03:32:00,22.0,17.0,-100.00,SSW,195,11.0,27.0,81,0.00,,,0.00,0.000000,,2013-01-11 10:32:00,
2013-01-11 03:42:00,22.0,17.0,-100.00,SSW,195,11.0,27.0,81,0.00,,,0.00,0.000000,,2013-01-11 10:42:00,
2013-01-11 04:12:00,23.0,17.0,-100.00,South,182,16.0,30.0,77,0.00,,,0.00,0.000000,,2013-01-11 11:12:00,
2013-01-11 04:22:00,23.0,17.0,-100.00,South,182,16.0,30.0,77,0.00,,,0.00,0.000000,,2013-01-11 11:22:00,
2013-01-11 04:32:00,23.0,17.0,-100.00,South,182,16.0,30.0,77,0.00,,,0.00,0.000000,,2013-01-11 11:32:00,
2013-01-11 04:42:00,23.0,17.0,-100.00,South,182,16.0,30.0,77,0.00,,,0.00,0.000000,,2013-01-11 11:42:00,
2013-01-11 05:12:00,21.0,18.0,-100.00,SW,218,15.0,19.0,87,0.00,,,0.00,0.000000,,2013-01-11 12:12:00,
2013-01-11 05:22:00,21.0,18.0,-100.00,SW,218,15.0,19.0,87,0.00,,,0.00,0.000000,,2013-01-11 12:22:00,
2013-01-11 05:32:00,21.0,18.0,-100.00,SW,218,15.0,19.0,87,0.00,,,0.00,0.000000,,2013-01-11 12:32:00,
2013-01-11 05:42:00,21.0,18.0,-100.00,SW,218,15.0,19.0,87,0.00,,,0.00,0.000000,,2013-01-11 12:42:00,
2013-01-11 06:12:00,16.0,15.0,-100.00,NNW,333,5.0,24.0,94,0.00,,,-99.99,0.000000,,2013-01-11 13:12:00,
2013-01-11 06:22:00,16.0,15.0,-100.00,NNW,333,5.0,24.0,94,0.00,,,-99.99,0.000000,,2013-01-11 13:22:00,
2013-01-11 06:32:00,16.0,15.0,-100.00,NNW,333,5.0,24.0,94,0.00,,,-99.99,0.000000,,2013-01-11 13:32:00,
2013-01-11 06:42:00,16.0,15.0,-100.00,NNW,333,5.0,24.0,94,0.00,,,-99.99,0.000000,,2013-01-11 13:42:00,
2013-01-11 07:12:00,14.0,12.0,-100.00,WNW,288,15.0,26.0,93,0.00,,,0.00,0.000000,,2013-01-11 14:12:00,
2013-01-11 07:22:00,14.0,12.0,-100.00,WNW,288,15.0,26.0,93,0.00,,,0.00,0.000000,,2013-01-11 14:22:00,
2013-01-11 07:33:00,14.0,12.0,-100.00,WNW,288,15.0,26.0,93,0.00,,,0.00,0.000000,,2013-01-11 14:33:00,
2013-01-11 07:42:00,14.0,12.0,-100.00,WNW,288,15.0,26.0,93,0.00,,,0.00,0.000000,,2013-01-11 14:42:00,
2013-01-11 08:12:00,9.0,7.0,-100.00,WNW,303,15.0,33.0,91,0.00,,,-99.99,3.000000,,2013-01-11 15:12:00,
2013-01-11 08:42:00,9.0,7.0,-100.00,WNW,303,15.0,33.0,91,0.00,,,-99.99,3.000000,,2013-01-11 15:42:00,
2013-01-11 09:12:00,8.0,6.0,-100.00,WNW,290,15.0,33.0,91,0.00,,,0.00,59.000000,,2013-01-11 16:12:00,
2013-01-11 09:22:00,8.0,6.0,-100.00,WNW,290,15.0,33.0,91,0.00,,,0.00,59.000000,,2013-01-11 16:22:00,
2013-01-11 09:32:00,8.0,6.0,-100.00,WNW,290,15.0,33.0,91,0.00,,,0.00,59.000000,,2013-01-11 16:32:00,
2013-01-11 09:42:00,8.0,6.0,-100.00,WNW,290,15.0,33.0,91,0.00,,,0.00,59.000000,,2013-01-11 16:42:00,
2013-01-11 10:12:00,9.0,7.0,-100.00,NW,306,11.0,34.0,91,0.00,,,0.00,171.000000,,2013-01-11 17:12:00,
2013-01-11 10:22:00,9.0,7.0,-100.00,NW,306,11.0,34.0,91,0.00,,,0.00,171.000000,,2013-01-11 17:22:00,
2013-01-11 10:33:00,9.0,7.0,-100.00,NW,306,11.0,34.0,91,0.00,,,0.00,171.000000,,2013-01-11 17:33:00,
2013-01-11 10:42:00,9.0,7.0,-100.00,NW,306,11.0,34.0,91,0.00,,,0.00,171.000000,,2013-01-11 17:42:00,
2013-01-11 11:12:00,7.0,4.0,-100.00,WNW,284,16.0,30.0,89,0.00,,,0.00,233.000000,,2013-01-11 18:12:00,
2013-01-11 11:23:00,7.0,4.0,-100.00,WNW,284,16.0,30.0,89,0.00,,,0.00,233.000000,,2013-01-11 18:23:00,
2013-01-11 11:32:00,7.0,4.0,-100.00,WNW,284,16.0,30.0,89,0.00,,,0.00,233.000000,,2013-01-11 18:32:00,
2013-01-11 11:42:00,7.0,4.0,-100.00,WNW,284,16.0,30.0,89,0.00,,,0.00,233.000000,,2013-01-11 18:42:00,
2013-01-11 12:12:00,13.0,10.0,-100.00,WNW,282,11.0,27.0,87,0.00,,,0.00,522.000000,,2013-01-11 19:12:00,
2013-01-11 12:22:00,13.0,10.0,-100.00,WNW,282,11.0,27.0,87,0.00,,,0.00,522.000000,,2013-01-11 19:22:00,
2013-01-11 12:32:00,13.0,10.0,-100.00,WNW,282,11.0,27.0,87,0.00,,,0.00,522.000000,,2013-01-11 19:32:00,
2013-01-11 12:42:00,13.0,10.0,-100.00,WNW,282,11.0,27.0,87,0.00,,,0.00,522.000000,,2013-01-11 19:42:00,
2013-01-11 13:12:00,7.0,-5.0,-100.00,WSW,254,28.0,45.0,56,0.00,,,0.00,443.000000,,2013-01-11 20:12:00,
2013-01-11 13:22:00,7.0,-5.0,-100.00,WSW,254,28.0,45.0,56,0.00,,,0.00,443.000000,,2013-01-11 20:22:00,
2013-01-11 13:32:00,7.0,-5.0,-100.00,WSW,254,28.0,45.0,56,0.00,,,0.00,443.000000,,2013-01-11 20:32:00,
2013-01-11 13:43:00,7.0,-5.0,-100.00,WSW,254,28.0,45.0,56,0.00,,,0.00,443.000000,,2013-01-11 20:43:00,
2013-01-11 14:12:00,9.0,-6.0,-100.00,WSW,254,24.0,41.0,50,0.00,,,-99.99,485.000000,,2013-01-11 21:12:00,
2013-01-11 14:23:00,9.0,-6.0,-100.00,WSW,254,24.0,41.0,50,0.00,,,-99.99,485.000000,,2013-01-11 21:23:00,
2013-01-11 14:32:00,9.0,-6.0,-100.00,WSW,254,24.0,41.0,50,0.00,,,-99.99,485.000000,,2013-01-11 21:32:00,
2013-01-11 14:42:00,9.0,-6.0,-100.00,WSW,254,24.0,41.0,50,0.00,,,-99.99,485.000000,,2013-01-11 21:42:00,
2013-01-11 15:12:00,9.0,-5.0,-100.00,West,274,14.0,35.0,53,0.00,,,0.00,629.000000,,2013-01-11 22:12:00,
2013-01-11 15:22:00,9.0,-5.0,-100.00,West,274,14.0,35.0,53,0.00,,,0.00,629.000000,,2013-01-11 22:22:00,
2013-01-11 15:33:00,9.0,-5.0,-100.00,West,274,14.0,35.0,53,0.00,,,0.00,629.000000,,2013-01-11 22:33:00,
2013-01-11 15:42:00,9.0,-5.0,-100.00,West,274,14.0,35.0,53,0.00,,,0.00,629.000000,,2013-01-11 22:42:00,
2013-01-11 16:12:00,7.0,0.0,-100.00,WSW,258,12.0,28.0,71,0.00,,,0.00,276.000000,,2013-01-11 23:12:00,
2013-01-11 16:22:00,7.0,0.0,-100.00,WSW,258,12.0,28.0,71,0.00,,,0.00,276.000000,,2013-01-11 23:22:00,
2013-01-11 16:32:00,7.0,0.0,-100.00,WSW,258,12.0,28.0,71,0.00,,,0.00,276.000000,,2013-01-11 23:32:00,
2013-01-11 16:42:00,7.0,0.0,-100.00,WSW,258,12.0,28.0,71,0.00,,,0.00,276.000000,,2013-01-11 23:42:00,
2013-01-11 17:12:00,5.0,-4.0,-100.00,West,276,10.0,24.0,65,0.00,,,0.00,182.000000,,2013-01-12 00:12:00,
2013-01-11 17:22:00,5.0,-4.0,-100.00,West,276,10.0,24.0,65,0.00,,,0.00,182.000000,,2013-01-12 00:22:00,
2013-01-11 17:32:00,5.0,-4.0,-100.00,West,276,10.0,24.0,65,0.00,,,0.00,182.000000,,2013-01-12 00:32:00,
2013-01-11 17:42:00,5.0,-4.0,-100.00,West,276,10.0,24.0,65,0.00,,,0.00,182.000000,,2013-01-12 00:42:00,
2013-01-11 18:12:00,4.0,-1.0,-100.00,West,273,8.0,16.0,80,0.00,,,0.00,5.000000,,2013-01-12 01:12:00,
2013-01-11 18:22:00,4.0,-1.0,-100.00,West,273,8.0,16.0,80,0.00,,,0.00,5.000000,,2013-01-12 01:22:00,
2013-01-11 18:32:00,4.0,-1.0,-100.00,West,273,8.0,16.0,80,0.00,,,0.00,5.000000,,2013-01-12 01:32:00,
2013-01-11 18:42:00,4.0,-1.0,-100.00,West,273,8.0,16.0,80,0.00,,,0.00,5.000000,,2013-01-12 01:42:00,
2013-01-11 19:12:00,2.0,-5.0,-100.00,West,267,11.0,17.0,72,0.00,,,0.00,0.000000,,2013-01-12 02:12:00,
2013-01-11 19:22:00,2.0,-5.0,-100.00,West,267,11.0,17.0,72,0.00,,,0.00,0.000000,,2013-01-12 02:22:00,
2013-01-11 19:32:00,2.0,-5.0,-100.00,West,267,11.0,17.0,72,0.00,,,0.00,0.000000,,2013-01-12 02:32:00,
2013-01-11 19:42:00,2.0,-5.0,-100.00,West,267,11.0,17.0,72,0.00,,,0.00,0.000000,,2013-01-12 02:42:00,
2013-01-11 20:12:00,2.0,-2.0,-100.00,West,269,8.0,18.0,84,0.00,,,0.00,0.000000,,2013-01-12 03:12:00,
2013-01-11 20:22:00,2.0,-2.0,-100.00,West,269,8.0,18.0,84,0.00,,,0.00,0.000000,,2013-01-12 03:22:00,
2013-01-11 20:32:00,2.0,-2.0,-100.00,West,269,8.0,18.0,84,0.00,,,0.00,0.000000,,2013-01-12 03:32:00,
2013-01-11 20:42:00,2.0,-2.0,-100.00,West,269,8.0,18.0,84,0.00,,,0.00,0.000000,,2013-01-12 03:42:00,
2013-01-11 21:12:00,1.0,-2.0,-100.00,WSW,256,5.0,15.0,86,0.00,,,0.00,0.000000,,2013-01-12 04:12:00,
2013-01-11 21:22:00,1.0,-2.0,-100.00,WSW,256,5.0,15.0,86,0.00,,,0.00,0.000000,,2013-01-12 04:22:00,
2013-01-11 21:32:00,1.0,-2.0,-100.00,WSW,256,5.0,15.0,86,0.00,,,0.00,0.000000,,2013-01-12 04:32:00,
2013-01-11 21:42:00,1.0,-2.0,-100.00,WSW,256,5.0,15.0,86,0.00,,,0.00,0.000000,,2013-01-12 04:42:00,
2013-01-11 22:12:00,1.0,-1.0,-100.00,WSW,242,4.0,10.0,89,0.00,,,0.00,0.000000,,2013-01-12 05:12:00,
2013-01-11 22:22:00,1.0,-1.0,-100.00,WSW,242,4.0,10.0,89,0.00,,,0.00,0.000000,,2013-01-12 05:22:00,
2013-01-11 22:32:00,1.0,-1.0,-100.00,WSW,242,4.0,10.0,89,0.00,,,0.00,0.000000,,2013-01-12 05:32:00,
2013-01-11 22:42:00,1.0,-1.0,-100.00,WSW,242,4.0,10.0,89,0.00,,,0.00,0.000000,,2013-01-12 05:42:00,
2013-01-11 23:12:00,-1.0,-4.0,-100.00,SW,231,7.0,9.0,88,0.00,,,0.00,0.000000,,2013-01-12 06:12:00,
2013-01-11 23:22:00,-1.0,-4.0,-100.00,SW,231,7.0,9.0,88,0.00,,,0.00,0.000000,,2013-01-12 06:22:00,
2013-01-11 23:32:00,-1.0,-4.0,-100.00,SW,231,7.0,9.0,88,0.00,,,0.00,0.000000,,2013-01-12 06:32:00,
2013-01-11 23:42:00,-1.0,-4.0,-100.00,SW,231,7.0,9.0,88,0.00,,,0.00,0.000000,,2013-01-12 06:42:00,